Home > Weather > Ibagué > Past weeks

Flag for Colombia Weather for the Past 2 Weeks in Ibagué, Colombia

Now
77 °F

Passing clouds.


Feels Like: 79 °F
Forecast: 57 / 75 °F
Wind: 3 mph from Southwest

Location: Pereira / Matecana

Current Time: Feb 8, 2016 at 10:05:49 AM

Latest Report: Feb 8, 2016 at 9:00 AM


Visibility: 5 mi

Pressure: 30.04 "Hg (25.94 "Hg at 1281m altitude)

Humidity: 69%

Dew point: 66 °F

Location of IbaguéLocation

Historic Weather in Ibagué — Graph

°F

Ibagué Temperature Yesterday

Maximum temperature yesterday: 88 °F (at 3:00 PM)
Minimum temperature yesterday: 66 °F (at 5:00 AM)
Average temperature yesterday: 76 °F

High & Low Weather Summary for the Past Weeks

 TemperatureHumidityPressure
High90 °F (Jan 24, 3:00 PM)94% (Jan 30, 12:00 AM)30.13 "Hg (Jan 30, 12:00 AM)
Low66 °F (Jan 25, 5:00 AM)33% (Feb 6, 4:00 PM)29.84 "Hg (Feb 7, 4:00 PM)
Average76 °F68%30.02 "Hg
* Reported Jan 24 9:00 AM — Feb 8 9:00 AM, Ibagué, Weather by CustomWeather, © 2016

Note: Actual official high and low records may vary slightly from our data, if they occured in-between our weather recording intervals... More about our weather records

Advertising

Ibagué Weather History for the Previous 24 Hours

 ConditionsComfort  
Time TempWeatherWind HumidityBarometerVisibility
9:00 AM
Mon, Feb 8
77 °FPassing clouds.3 mph69%30.04 "Hg5 mi
8:00 AM72 °FPassing clouds.3 mph83%30.03 "Hg5 mi
7:00 AM68 °FPassing clouds.3 mph88%30.01 "HgN/A
6:00 AM68 °FPassing clouds.2 mph88%29.99 "HgN/A
5:00 AM68 °FPassing clouds.2 mph88%29.98 "HgN/A
12:00 AM72 °FPassing clouds.3 mph83%30.01 "HgN/A
11:00 PM
Sun, Feb 7
72 °FPassing clouds.6 mph83%30.00 "HgN/A
10:00 PM73 °FPassing clouds.2 mph83%30.00 "HgN/A
9:00 PM73 °FPassing clouds.5 mph83%29.97 "HgN/A
8:00 PM73 °FPassing clouds.2 mph83%29.94 "HgN/A
7:00 PM73 °FPassing clouds.7 mph83%29.92 "HgN/A
6:00 PM73 °FScattered clouds.7 mph78%29.90 "Hg6 mi
5:00 PM86 °FScattered clouds.2 mph43%29.85 "HgN/A
4:00 PM88 °FScattered clouds.5 mph38%29.84 "HgN/A
3:00 PM88 °FPassing clouds.2 mph40%29.86 "HgN/A
2:00 PM86 °FScattered clouds.7 mph43%29.89 "HgN/A
1:00 PM84 °FScattered clouds.7 mph51%29.97 "HgN/A
12:00 PM81 °FScattered clouds.2 mph54%30.00 "HgN/A
11:00 AM79 °FWarm.6 mph61%30.03 "HgN/A
10:00 AM77 °FScattered clouds.6 mph65%30.06 "HgN/A
Weather by CustomWeather, © 2016

See weather overviewHow to use our weather pages